DELTA 1 DEB, 7075

Orbit data source: Space-Track

DELTA 1 DEB, 7075 is space debris in SSO originally from a launch on Tue, 06 Nov 1973 UTC launched from the Air Force Western Test Range (AFWTR). Debris objects in space refer to the collection of defunct objects orbiting the Earth. Examples of debris include non-operational satellites, rocket bodies, and fragments generated from explosions, collisions, or faulty payload assembly.

Loading next visibility...
Identifier
7075, 1973-086BT
Orbit
SSO
Country
Flag of USUS
Related business
Manufacturer
Unknown
Mission
Spacecraft
Bus & Motor
Unknown
Mass
Unknown
Launch date (UTC)
1973-11-06 (52 years ago)
Launch vehicle
Unknown
Launch site
Air Force Western Test Range (AFWTR)
Object type
Payload
Rocket body
Debris
Shape & HBR
Unknown shape, 0.1 m
Radar Cross Section
Medium (>0.1 m² and <1 m²)

Expand to show TLE details & history
Last TLE update: 19 hours ago

TLE from 19 hours ago
0 DELTA 1 DEB
1 07075U 73086BT  25292.31617115  .00002717  00000-0  88258-2 0  9998
2 07075 101.6022 178.0941 0160683 104.2274  13.6900 12.98601753434740
Epoch: 2025-10-19T07:35Z
TLE epoch observation values (Epoch: 2025-10-19T07:35:17.187Z)
Latitude
59.63585°
Longitude
-123.35694°
Altitude
1,158.258 km
Speed
7.336 km/s
True Right ascension
01h 13m 59s
True Declination
59° 29' 37"
Sunlit
Object was in full shadow at epoch
Visualization orbit readout
Latitude
Unknown
Longitude
Unknown
Altitude
Unknown
Speed
Unknown
Apparent Right ascension
Unknown
Apparent Declination
Unknown
Sunlit
N/A
Visualization observer readout
Local Sidereal Time
21:36:50
Azimuth
Unknown
Elevation
Unknown
Doppler factor
Unknown
Orbital elements
Apogee altitude
1,387.86 km
Perigee altitude
1,142.234 km
Semi-major axis
7,643.184 km
Eccentricity
0.01607
Inclination
101.6022°
RAAN
178.0941°
Arg. of periapsis
104.2274°
True anomaly
14.13444°
Mean anomaly
13.69°
Eccentric anomaly
13.91134°
Mean motion
3.24812 °/min
Orbital period
110.83 mins
BSTAR
0.0088258
Loading maneuver chart data...
Computing Atmospheric mass density...
Loading historical data...
Loading historical data...
Loading historical data...
Loading historical data...
Loading historical data...
Loading historical data...
Loading historical data...

Documentation

Showing up to 5 results
|